| time (UTC) | temp F | wind direction | speed MPH | gust MPH | rain 1hr in | rain 24hr in | rain mn in | humidity % | barometer mb |
| 20260505234836 | 52 | 46 | 0.0 | 0.0 | 0.00 | 0.32 | 0.32 | 81 | 1011.0 |
| 20260505234334 | 53 | 46 | 0.0 | 0.0 | 0.00 | 0.32 | 0.32 | 82 | 1011.0 |
| 20260505233830 | 52 | 46 | 0.0 | 0.0 | 0.00 | 0.32 | 0.32 | 81 | 1011.0 |
| 20260505233329 | 52 | 46 | 0.0 | 0.0 | 0.00 | 0.32 | 0.32 | 81 | 1010.9 |
| 20260505232825 | 52 | 46 | 0.0 | 0.0 | 0.00 | 0.32 | 0.32 | 82 | 1011.0 |
| 20260505232323 | 52 | 46 | 0.0 | 0.0 | 0.00 | 0.32 | 0.32 | 82 | 1011.2 |
| 20260505231819 | 52 | 46 | 0.0 | 0.0 | 0.00 | 0.32 | 0.32 | 81 | 1010.9 |
| 20260505231318 | 52 | 46 | 0.0 | 0.0 | 0.00 | 0.32 | 0.32 | 81 | 1011.2 |
| 20260505230816 | 52 | 46 | 0.0 | 0.0 | 0.00 | 0.32 | 0.32 | 79 | 1011.2 |
| 20260505230313 | 52 | 46 | 0.0 | 0.0 | 0.00 | 0.32 | 0.32 | 80 | 1011.2 |
| 20260505225809 | 53 | 46 | 0.0 | 0.0 | 0.00 | 0.32 | 0.32 | 79 | 1010.8 |
| 20260505225307 | 53 | 46 | 0.0 | 0.0 | 0.00 | 0.32 | 0.32 | 80 | 1010.8 |
| 20260505224802 | 53 | 46 | 0.0 | 0.0 | 0.00 | 0.32 | 0.32 | 79 | 1010.8 |
| 20260505224300 | 53 | 46 | 0.0 | 0.0 | 0.00 | 0.32 | 0.32 | 78 | 1010.6 |
| 20260505223757 | 53 | 46 | 0.0 | 0.0 | 0.00 | 0.32 | 0.32 | 78 | 1010.9 |
| 20260505223254 | 52 | 46 | 0.0 | 0.0 | 0.00 | 0.32 | 0.32 | 77 | 1011.0 |
| 20260505222749 | 52 | 46 | 0.0 | 0.0 | 0.00 | 0.32 | 0.32 | 78 | 1011.1 |
| 20260505222246 | 52 | 46 | 0.0 | 0.0 | 0.00 | 0.32 | 0.32 | 78 | 1010.9 |
| 20260505221743 | 52 | 46 | 0.0 | 0.0 | 0.00 | 0.32 | 0.32 | 79 | 1010.9 |
| 20260505221240 | 52 | 47 | 0.0 | 0.0 | 0.00 | 0.32 | 0.32 | 78 | 1010.9 |
| 20260505220736 | 52 | 47 | 0.0 | 0.0 | 0.00 | 0.32 | 0.32 | 80 | 1010.7 |
| 20260505220234 | 52 | 47 | 0.0 | 0.0 | 0.00 | 0.32 | 0.32 | 80 | 1010.9 |
| 20260505215732 | 52 | 46 | 0.0 | 0.0 | 0.00 | 0.32 | 0.32 | 80 | 1011.0 |
| 20260505215229 | 52 | 47 | 0.0 | 0.0 | 0.00 | 0.32 | 0.32 | 78 | 1010.9 |
| 20260505214727 | 52 | 47 | 0.0 | 0.0 | 0.00 | 0.32 | 0.32 | 79 | 1011.3 |
| 20260505214224 | 52 | 47 | 0.0 | 0.0 | 0.00 | 0.32 | 0.32 | 79 | 1011.2 |
| 20260505213721 | 52 | 47 | 0.0 | 0.0 | 0.00 | 0.32 | 0.32 | 77 | 1011.1 |
| 20260505213219 | 52 | 48 | 0.0 | 0.0 | 0.00 | 0.32 | 0.32 | 76 | 1010.9 |
| 20260505212714 | 52 | 48 | 0.0 | 0.0 | 0.00 | 0.32 | 0.32 | 79 | 1011.2 |
| 20260505212212 | 52 | 48 | 0.0 | 0.0 | 0.00 | 0.32 | 0.32 | 77 | 1011.0 |
| 20260505211709 | 52 | 49 | 0.0 | 0.0 | 0.00 | 0.32 | 0.32 | 76 | 1010.9 |
| 20260505211206 | 52 | 48 | 0.0 | 0.0 | 0.00 | 0.32 | 0.32 | 76 | 1011.1 |
| 20260505210703 | 52 | 29 | 1.0 | 1.0 | 0.00 | 0.32 | 0.32 | 75 | 1011.5 |
| 20260505210159 | 52 | 50 | 0.0 | 0.0 | 0.00 | 0.32 | 0.32 | 76 | 1011.2 |
| 20260505205657 | 52 | 49 | 0.0 | 0.0 | 0.00 | 0.32 | 0.32 | 76 | 1011.3 |
| 20260505205155 | 52 | 49 | 0.0 | 0.0 | 0.00 | 0.32 | 0.32 | 76 | 1011.4 |
| 20260505204651 | 51 | 53 | 0.0 | 0.0 | 0.00 | 0.32 | 0.32 | 77 | 1011.3 |
| 20260505204149 | 51 | 49 | 1.0 | 1.0 | 0.00 | 0.32 | 0.32 | 76 | 1011.4 |
| 20260505203646 | 51 | 49 | 1.0 | 1.0 | 0.00 | 0.32 | 0.32 | 75 | 1011.6 |
| 20260505203142 | 51 | 47 | 0.0 | 1.0 | 0.00 | 0.32 | 0.32 | 76 | 1011.5 |
| 20260505202637 | 51 | 37 | 0.0 | 2.0 | 0.00 | 0.32 | 0.32 | 76 | 1011.2 |
| 20260505202134 | 51 | 50 | 0.0 | 1.0 | 0.00 | 0.32 | 0.32 | 79 | 1011.5 |
| 20260505201626 | 51 | 45 | 0.0 | 1.0 | 0.00 | 0.32 | 0.32 | 79 | 1011.2 |
| 20260505201123 | 51 | 50 | 0.0 | 0.0 | 0.00 | 0.32 | 0.32 | 80 | 1011.4 |
| 20260505200621 | 51 | 54 | 0.0 | 2.0 | 0.00 | 0.32 | 0.32 | 79 | 1011.4 |
| 20260505200118 | 51 | 66 | 0.0 | 0.0 | 0.00 | 0.32 | 0.32 | 87 | 1011.7 |
| 20260505195614 | 51 | 51 | 0.0 | 1.0 | 0.00 | 0.32 | 0.32 | 87 | 1011.8 |
| 20260505195111 | 51 | 48 | 0.0 | 0.0 | 0.00 | 0.32 | 0.32 | 88 | 1011.6 |
| 20260505194608 | 51 | 64 | 0.0 | 0.0 | 0.00 | 0.32 | 0.32 | 87 | 1011.5 |
| 20260505194104 | 51 | 71 | 0.0 | 0.0 | 0.00 | 0.32 | 0.32 | 86 | 1011.8 |
| 20260505193601 | 50 | 55 | 0.0 | 1.0 | 0.00 | 0.32 | 0.32 | 87 | 1011.6 |
| 20260505193058 | 50 | 54 | 0.0 | 0.0 | 0.00 | 0.32 | 0.32 | 88 | 1011.7 |
| 20260505192557 | 50 | 64 | 0.0 | 0.0 | 0.00 | 0.32 | 0.32 | 85 | 1011.7 |
| 20260505192054 | 50 | 64 | 0.0 | 0.0 | 0.00 | 0.32 | 0.32 | 86 | 1011.7 |
| 20260505191552 | 49 | 64 | 0.0 | 0.0 | 0.00 | 0.32 | 0.32 | 85 | 1011.5 |
| 20260505191049 | 49 | 64 | 0.0 | 0.0 | 0.00 | 0.32 | 0.32 | 85 | 1011.8 |
| 20260505190544 | 49 | 70 | 0.0 | 0.0 | 0.00 | 0.32 | 0.32 | 86 | 1011.7 |
| 20260505190041 | 50 | 68 | 0.0 | 0.0 | 0.00 | 0.32 | 0.32 | 86 | 1011.6 |
| 20260505185538 | 49 | 82 | 0.0 | 0.0 | 0.00 | 0.32 | 0.32 | 83 | 1011.6 |
| 20260505185034 | 49 | 97 | 0.0 | 0.0 | 0.00 | 0.32 | 0.32 | 87 | 1011.5 |
| 20260505184531 | 49 | 64 | 0.0 | 0.0 | 0.00 | 0.32 | 0.32 | 88 | 1011.7 |
| 20260505184028 | 49 | 67 | 0.0 | 1.0 | 0.00 | 0.32 | 0.32 | 88 | 1011.7 |
| 20260505183524 | 49 | 99 | 0.0 | 0.0 | 0.00 | 0.32 | 0.32 | 90 | 1011.8 |
| 20260505183022 | 48 | 85 | 0.0 | 0.0 | 0.00 | 0.32 | 0.32 | 90 | 1011.7 |
| 20260505182518 | 49 | 98 | 0.0 | 0.0 | 0.00 | 0.32 | 0.32 | 92 | 1011.8 |
| 20260505182014 | 49 | 107 | 0.0 | 0.0 | 0.00 | 0.32 | 0.32 | 91 | 1011.7 |
| 20260505181511 | 49 | 90 | 0.0 | 0.0 | 0.00 | 0.32 | 0.32 | 92 | 1011.9 |
| 20260505181008 | 48 | 94 | 0.0 | 0.0 | 0.00 | 0.32 | 0.32 | 91 | 1011.9 |
| 20260505180503 | 48 | 90 | 0.0 | 0.0 | 0.00 | 0.32 | 0.32 | 92 | 1012.2 |
| 20260505180001 | 48 | 61 | 0.0 | 0.0 | 0.00 | 0.32 | 0.32 | 91 | 1012.2 |
| 20260505175456 | 48 | 75 | 0.0 | 0.0 | 0.00 | 0.32 | 0.32 | 93 | 1012.2 |
| 20260505174954 | 48 | 90 | 0.0 | 0.0 | 0.00 | 0.32 | 0.32 | 93 | 1012.1 |
| 20260505174451 | 48 | 81 | 0.0 | 0.0 | 0.00 | 0.32 | 0.32 | 94 | 1012.0 |
| 20260505173947 | 48 | 70 | 0.0 | 0.0 | 0.00 | 0.32 | 0.32 | 94 | 1012.2 |
| 20260505173443 | 48 | 95 | 0.0 | 0.0 | 0.00 | 0.32 | 0.32 | 93 | 1012.0 |
| 20260505172940 | 48 | 72 | 0.0 | 0.0 | 0.00 | 0.32 | 0.32 | 94 | 1012.2 |
| 20260505172439 | 48 | 61 | 0.0 | 0.0 | 0.00 | 0.32 | 0.32 | 92 | 1012.2 |
| 20260505171938 | 48 | 54 | 0.0 | 1.0 | 0.00 | 0.32 | 0.32 | 92 | 1012.3 |
| 20260505171435 | 48 | 60 | 0.0 | 0.0 | 0.00 | 0.32 | 0.32 | 94 | 1012.7 |
| 20260505170932 | 48 | 59 | 0.0 | 0.0 | 0.00 | 0.32 | 0.32 | 94 | 1012.4 |
| 20260505170428 | 48 | 57 | 0.0 | 0.0 | 0.00 | 0.32 | 0.32 | 94 | 1012.7 |
| 20260505165924 | 48 | 61 | 0.0 | 0.0 | 0.07 | 0.32 | 0.32 | 94 | 1012.4 |
| 20260505165420 | 48 | 64 | 0.0 | 0.0 | 0.00 | 0.31 | 0.31 | 94 | 1012.1 |
| 20260505164915 | 48 | 65 | 0.0 | 0.0 | 0.00 | 0.31 | 0.31 | 94 | 1012.1 |
| 20260505164412 | 48 | 67 | 0.0 | 0.0 | 0.00 | 0.31 | 0.31 | 94 | 1012.1 |
| 20260505163910 | 48 | 72 | 0.0 | 0.0 | 0.00 | 0.31 | 0.31 | 94 | 1012.1 |
| 20260505163409 | 49 | 59 | 0.0 | 0.0 | 0.00 | 0.31 | 0.31 | 95 | 1012.2 |
| 20260505162908 | 48 | 70 | 0.0 | 0.0 | 0.05 | 0.31 | 0.31 | 94 | 1012.3 |
| 20260505162403 | 48 | 71 | 0.0 | 0.0 | 0.05 | 0.31 | 0.31 | 93 | 1012.2 |
| 20260505161900 | 47 | 70 | 0.0 | 0.0 | 0.00 | 0.30 | 0.30 | 91 | 1012.1 |
| 20260505161357 | 47 | 75 | 0.0 | 1.0 | 0.00 | 0.30 | 0.30 | 90 | 1012.1 |
| 20260505160854 | 47 | 61 | 0.0 | 0.0 | 0.00 | 0.30 | 0.30 | 92 | 1012.4 |
| 20260505160352 | 48 | 54 | 0.0 | 0.0 | 0.00 | 0.30 | 0.30 | 92 | 1012.7 |
| 20260505153331 | 47 | 73 | 0.0 | 0.0 | 0.07 | 0.30 | 0.30 | 97 | 1012.3 |
| 20260505152828 | 47 | 64 | 0.0 | 0.0 | 0.00 | 0.29 | 0.29 | 97 | 1012.0 |
| 20260505152325 | 47 | 66 | 0.0 | 0.0 | 0.07 | 0.29 | 0.29 | 97 | 1012.3 |
| 20260505151820 | 47 | 66 | 0.0 | 0.0 | 0.07 | 0.29 | 0.29 | 96 | 1012.1 |
| 20260505151317 | 47 | 66 | 0.0 | 0.0 | 0.00 | 0.28 | 0.28 | 95 | 1012.4 |
| 20260505150814 | 47 | 71 | 0.0 | 0.0 | 0.00 | 0.28 | 0.28 | 97 | 1012.1 |
| 20260505150311 | 47 | 72 | 0.0 | 0.0 | 0.00 | 0.28 | 0.28 | 97 | 1011.6 |
| 20260505140240 | 47 | 64 | 0.0 | 0.0 | 0.17 | 0.22 | 0.22 | 97 | 1012.0 |
| 20260505130204 | 47 | 48 | 0.0 | 2.0 | 0.00 | 0.10 | 0.10 | 88 | 1010.5 |
| 20260505124654 | 47 | 61 | 0.0 | 0.0 | 0.00 | 0.10 | 0.10 | 88 | 1010.1 |
| 20260505124151 | 47 | 58 | 0.0 | 0.0 | 0.07 | 0.10 | 0.10 | 88 | 1009.9 |
| 20260505123647 | 47 | 62 | 0.0 | 0.0 | 0.07 | 0.10 | 0.10 | 86 | 1010.0 |
| 20260505123144 | 47 | 55 | 0.0 | 0.0 | 0.12 | 0.09 | 0.09 | 85 | 1009.9 |
| 20260505122640 | 48 | 61 | 0.0 | 0.0 | 0.12 | 0.08 | 0.08 | 82 | 1009.5 |
| 20260505122138 | 48 | 60 | 0.0 | 0.0 | 0.12 | 0.07 | 0.07 | 79 | 1009.4 |
| 20260505121628 | 49 | 56 | 0.0 | 3.0 | 0.12 | 0.06 | 0.06 | 76 | 1008.9 |
| 20260505121125 | 50 | 43 | 2.0 | 2.0 | 0.12 | 0.05 | 0.05 | 70 | 1008.8 |
| 20260505120621 | 51 | 59 | 0.0 | 1.0 | 0.07 | 0.04 | 0.04 | 66 | 1009.2 |
| 20260505120117 | 52 | 62 | 0.0 | 0.0 | 0.00 | 0.03 | 0.03 | 62 | 1009.6 |
| 20260505115612 | 52 | 67 | 0.0 | 1.0 | 0.00 | 0.03 | 0.03 | 56 | 1009.6 |
| 20260505115110 | 53 | 60 | 0.0 | 3.0 | 0.00 | 0.03 | 0.03 | 54 | 1008.9 |
| 20260505114606 | 53 | 58 | 0.0 | 1.0 | 0.00 | 0.03 | 0.03 | 54 | 1009.3 |
| 20260505114103 | 53 | 75 | 0.0 | 1.0 | 0.00 | 0.03 | 0.03 | 54 | 1008.9 |
| 20260505113559 | 53 | 76 | 0.0 | 0.0 | 0.00 | 0.03 | 0.03 | 55 | 1008.9 |
| 20260505113056 | 53 | 66 | 0.0 | 0.0 | 0.00 | 0.03 | 0.03 | 54 | 1009.3 |
| 20260505112552 | 53 | 57 | 2.0 | 3.0 | 0.00 | 0.03 | 0.03 | 53 | 1009.0 |
| 20260505112050 | 53 | 58 | 0.0 | 2.0 | 0.00 | 0.03 | 0.03 | 54 | 1009.2 |
| 20260505111544 | 53 | 50 | 0.0 | 5.0 | 0.00 | 0.03 | 0.03 | 54 | 1008.8 |
| 20260505111041 | 53 | 46 | 2.0 | 5.0 | 0.00 | 0.03 | 0.03 | 54 | 1008.9 |
| 20260505110537 | 53 | 48 | 1.0 | 5.0 | 0.00 | 0.03 | 0.03 | 54 | 1008.9 |
| 20260505102010 | 52 | 47 | 1.0 | 3.0 | 0.00 | 0.03 | 0.03 | 61 | 1008.7 |
| 20260505101508 | 52 | 56 | 0.0 | 1.0 | 0.00 | 0.03 | 0.03 | 61 | 1009.3 |
| 20260505101004 | 52 | 46 | 1.0 | 1.0 | 0.00 | 0.03 | 0.03 | 61 | 1009.0 |
| 20260505100501 | 53 | 346 | 3.0 | 3.0 | 0.00 | 0.03 | 0.03 | 61 | 1009.3 |
| 20260505095958 | 53 | 55 | 0.0 | 1.0 | 0.00 | 0.03 | 0.03 | 61 | 1009.3 |
| 20260505095454 | 53 | 42 | 1.0 | 2.0 | 0.00 | 0.03 | 0.03 | 61 | 1009.3 |
| 20260505094950 | 53 | 53 | 0.0 | 2.0 | 0.00 | 0.03 | 0.03 | 61 | 1008.7 |
| 20260505094448 | 53 | 354 | 0.0 | 2.0 | 0.00 | 0.03 | 0.03 | 60 | 1009.4 |
| 20260505093943 | 53 | 53 | 0.0 | 1.0 | 0.00 | 0.03 | 0.03 | 60 | 1009.2 |
| 20260505093440 | 53 | 56 | 0.0 | 1.0 | 0.00 | 0.03 | 0.03 | 61 | 1009.2 |
| 20260505092937 | 53 | 41 | 1.0 | 2.0 | 0.00 | 0.03 | 0.03 | 60 | 1008.8 |
| 20260505092435 | 53 | 50 | 2.0 | 3.0 | 0.00 | 0.03 | 0.03 | 60 | 1008.3 |
| 20260505091933 | 53 | 47 | 2.0 | 6.0 | 0.00 | 0.03 | 0.03 | 60 | 1007.7 |
| 20260505091430 | 52 | 45 | 0.0 | 3.0 | 0.00 | 0.03 | 0.03 | 61 | 1007.8 |
| 20260505090928 | 52 | 51 | 1.0 | 3.0 | 0.00 | 0.03 | 0.03 | 62 | 1007.6 |
| 20260505090426 | 52 | 51 | 0.0 | 3.0 | 0.00 | 0.03 | 0.03 | 62 | 1007.5 |
| 20260505085923 | 52 | 320 | 2.0 | 3.0 | 0.00 | 0.03 | 0.03 | 64 | 1007.4 |
| 20260505085421 | 52 | 358 | 3.0 | 3.0 | 0.00 | 0.03 | 0.03 | 65 | 1007.5 |
| 20260505084919 | 52 | 53 | 0.0 | 2.0 | 0.00 | 0.03 | 0.03 | 66 | 1007.4 |
| 20260505084416 | 52 | 53 | 2.0 | 3.0 | 0.00 | 0.03 | 0.03 | 66 | 1007.3 |
| 20260505083914 | 52 | 46 | 2.0 | 5.0 | 0.00 | 0.03 | 0.03 | 66 | 1007.5 |
| 20260505083412 | 52 | 38 | 3.0 | 3.0 | 0.00 | 0.03 | 0.03 | 65 | 1007.4 |
| 20260505082908 | 52 | 28 | 2.0 | 2.0 | 0.00 | 0.03 | 0.03 | 65 | 1007.4 |
| 20260505082403 | 52 | 73 | 5.0 | 7.0 | 0.00 | 0.03 | 0.03 | 66 | 1007.0 |
| 20260505081901 | 52 | 50 | 1.0 | 5.0 | 0.00 | 0.03 | 0.03 | 66 | 1007.8 |
| 20260505081357 | 51 | 14 | 2.0 | 3.0 | 0.00 | 0.03 | 0.03 | 70 | 1008.1 |
| 20260505080854 | 51 | 66 | 0.0 | 1.0 | 0.00 | 0.03 | 0.03 | 72 | 1007.8 |
| 20260505080350 | 51 | 43 | 1.0 | 1.0 | 0.00 | 0.03 | 0.03 | 75 | 1008.1 |
| 20260505075846 | 51 | 57 | 3.0 | 5.0 | 0.00 | 0.03 | 0.03 | 72 | 1007.8 |
| 20260505075343 | 51 | 55 | 0.0 | 2.0 | 0.07 | 0.03 | 0.03 | 74 | 1008.0 |
| 20260505074840 | 51 | 48 | 2.0 | 5.0 | 0.07 | 0.03 | 0.03 | 74 | 1008.3 |
| 20260505074337 | 51 | 51 | 1.0 | 2.0 | 0.00 | 0.02 | 0.02 | 70 | 1009.0 |
| 20260505073834 | 51 | 51 | 1.0 | 2.0 | 0.05 | 0.02 | 0.02 | 69 | 1009.5 |
| 20260505073332 | 53 | 41 | 1.0 | 2.0 | 0.05 | 0.02 | 0.02 | 69 | 1009.0 |
| 20260505072829 | 54 | 53 | 0.0 | 0.0 | 0.07 | 0.01 | 0.01 | 72 | 1008.9 |
| 20260505072325 | 55 | 20 | 1.0 | 2.0 | 0.07 | 0.01 | 0.01 | 58 | 1008.7 |
| 20260505071821 | 57 | 5 | 4.0 | 5.0 | 0.00 | 0.00 | 0.00 | 49 | 1008.7 |
| 20260505071318 | 58 | 41 | 1.0 | 3.0 | 0.00 | 0.00 | 0.00 | 44 | 1008.5 |
| 20260505070816 | 59 | 313 | 4.0 | 7.0 | 0.00 | 0.00 | 0.00 | 41 | 1008.3 |
| 20260505070312 | 59 | 332 | 4.0 | 8.0 | 0.00 | 0.00 | 0.00 | 41 | 1008.1 |
| 20260505065807 | 59 | 47 | 1.0 | 5.0 | 0.00 | 0.00 | 0.00 | 42 | 1007.5 |
| 20260505065304 | 59 | 44 | 1.0 | 6.0 | 0.00 | 0.00 | 0.00 | 42 | 1007.0 |
| 20260505064802 | 59 | 53 | 3.0 | 5.0 | 0.00 | 0.00 | 0.00 | 41 | 1006.8 |
| 20260505064258 | 59 | 35 | 3.0 | 8.0 | 0.00 | 0.00 | 0.00 | 41 | 1006.5 |
| 20260505063756 | 59 | 351 | 4.0 | 7.0 | 0.00 | 0.00 | 0.00 | 41 | 1006.7 |
| 20260505063252 | 59 | 344 | 3.0 | 8.0 | 0.00 | 0.00 | 0.00 | 41 | 1006.7 |
| 20260505062749 | 60 | 324 | 5.0 | 9.0 | 0.00 | 0.00 | 0.00 | 40 | 1006.6 |
| 20260505062246 | 60 | 351 | 3.0 | 7.0 | 0.00 | 0.00 | 0.00 | 41 | 1006.5 |
| 20260505061743 | 60 | 345 | 5.0 | 8.0 | 0.00 | 0.00 | 0.00 | 40 | 1006.4 |
| 20260505061241 | 60 | 45 | 3.0 | 11.0 | 0.00 | 0.00 | 0.00 | 40 | 1006.2 |
| 20260505060738 | 61 | 335 | 7.0 | 9.0 | 0.00 | 0.00 | 0.00 | 40 | 1005.9 |
| 20260505060236 | 61 | 49 | 2.0 | 10.0 | 0.00 | 0.00 | 0.00 | 42 | 1006.2 |
| 20260505055730 | 62 | 344 | 4.0 | 13.0 | 0.00 | 0.00 | 0.00 | 42 | 1005.8 |
| 20260505055227 | 62 | 0 | 7.0 | 14.0 | 0.00 | 0.00 | 0.00 | 40 | 1005.4 |
| 20260505054725 | 63 | 39 | 5.0 | 7.0 | 0.00 | 0.00 | 0.00 | 40 | 1005.7 |
| 20260505054222 | 64 | 38 | 5.0 | 6.0 | 0.00 | 0.00 | 0.00 | 40 | 1005.7 |
| 20260505053720 | 64 | 351 | 3.0 | 8.0 | 0.00 | 0.00 | 0.00 | 39 | 1005.8 |
| 20260505053216 | 65 | 34 | 3.0 | 6.0 | 0.00 | 0.00 | 0.00 | 39 | 1005.5 |
| 20260505052714 | 66 | 357 | 3.0 | 5.0 | 0.00 | 0.00 | 0.00 | 39 | 1005.4 |
| 20260505052210 | 66 | 352 | 4.0 | 7.0 | 0.00 | 0.00 | 0.00 | 38 | 1005.1 |
| 20260505051708 | 67 | 331 | 11.0 | 15.0 | 0.00 | 0.00 | 0.00 | 37 | 1005.0 |
| 20260505051205 | 67 | 18 | 3.0 | 9.0 | 0.00 | 0.00 | 0.00 | 38 | 1005.1 |
| 20260505050703 | 67 | 48 | 3.0 | 5.0 | 0.00 | 0.00 | 0.00 | 38 | 1004.7 |
| 20260505050202 | 68 | 34 | 4.0 | 6.0 | 0.00 | 0.00 | 0.00 | 38 | 1005.0 |
| 20260505041636 | 70 | 53 | 0.0 | 6.0 | 0.00 | 0.00 | 0.00 | 37 | 1004.1 |
| 20260505041134 | 70 | 32 | 1.0 | 2.0 | 0.00 | 0.00 | 0.00 | 37 | 1003.9 |
| 20260505040630 | 70 | 48 | 2.0 | 5.0 | 0.00 | 0.00 | 0.00 | 37 | 1004.2 |
| 20260505040128 | 71 | 42 | 2.0 | 3.0 | 0.00 | 0.00 | 0.00 | 37 | 1003.6 |
| 20260505035624 | 71 | 32 | 2.0 | 8.0 | 0.00 | 0.00 | 0.00 | 38 | 1003.8 |
| 20260505035120 | 71 | 311 | 3.0 | 5.0 | 0.00 | 0.00 | 0.00 | 43 | 1003.6 |
| 20260505034617 | 71 | 349 | 3.0 | 7.0 | 0.00 | 0.00 | 0.00 | 44 | 1003.6 |
| 20260505034114 | 71 | 16 | 2.0 | 2.0 | 0.00 | 0.00 | 0.00 | 49 | 1003.6 |
| 20260505033611 | 71 | 288 | 5.0 | 7.0 | 0.00 | 0.00 | 0.00 | 51 | 1003.5 |
| 20260505033109 | 71 | 31 | 1.0 | 3.0 | 0.00 | 0.00 | 0.00 | 53 | 1003.4 |
| 20260505032607 | 70 | 51 | 0.0 | 1.0 | 0.00 | 0.00 | 0.00 | 56 | 1003.5 |
| 20260505032103 | 69 | 49 | 1.0 | 7.0 | 0.00 | 0.00 | 0.00 | 60 | 1003.4 |
| 20260505031600 | 72 | 114 | 1.0 | 2.0 | 0.00 | 0.00 | 0.00 | 58 | 1002.9 |
| 20260505031056 | 71 | 114 | 0.0 | 0.0 | 0.00 | 0.00 | 0.00 | 58 | 1002.6 |
| 20260505030554 | 71 | 114 | 0.0 | 0.0 | 0.00 | 0.00 | 0.00 | 58 | 1002.6 |
| 20260505030049 | 72 | 114 | 0.0 | 0.0 | 0.00 | 0.00 | 0.00 | 57 | 1002.5 |
| 20260505025545 | 72 | 114 | 0.0 | 0.0 | 0.00 | 0.00 | 0.00 | 57 | 1002.4 |
| 20260505025045 | 72 | 114 | 0.0 | 0.0 | 0.00 | 0.00 | 0.00 | 56 | 1002.6 |
| 20260505024541 | 72 | 114 | 0.0 | 0.0 | 0.00 | 0.00 | 0.00 | 56 | 1002.4 |
| 20260505024038 | 72 | 114 | 0.0 | 0.0 | 0.00 | 0.00 | 0.00 | 57 | 1002.6 |
| 20260505023535 | 72 | 114 | 0.0 | 0.0 | 0.00 | 0.00 | 0.00 | 56 | 1002.4 |
| 20260505023033 | 72 | 114 | 0.0 | 0.0 | 0.00 | 0.00 | 0.00 | 56 | 1002.6 |
| 20260505022530 | 73 | 114 | 0.0 | 0.0 | 0.00 | 0.00 | 0.00 | 56 | 1002.2 |
| 20260505022027 | 73 | 114 | 0.0 | 0.0 | 0.00 | 0.00 | 0.00 | 55 | 1001.9 |
| 20260505021524 | 73 | 114 | 0.0 | 0.0 | 0.00 | 0.00 | 0.00 | 55 | 1002.0 |
| 20260505021020 | 73 | 114 | 0.0 | 0.0 | 0.00 | 0.00 | 0.00 | 55 | 1001.9 |
| 20260505020514 | 73 | 114 | 0.0 | 0.0 | 0.00 | 0.00 | 0.00 | 54 | 1002.0 |
| 20260505020012 | 74 | 114 | 0.0 | 0.0 | 0.00 | 0.00 | 0.00 | 54 | 1001.6 |
| 20260505015509 | 74 | 114 | 0.0 | 0.0 | 0.00 | 0.00 | 0.00 | 54 | 1002.0 |
| 20260505015006 | 74 | 114 | 0.0 | 0.0 | 0.00 | 0.00 | 0.00 | 54 | 1001.6 |
| 20260505014503 | 74 | 114 | 0.0 | 0.0 | 0.00 | 0.00 | 0.00 | 54 | 1001.6 |
| 20260505014000 | 73 | 114 | 0.0 | 0.0 | 0.00 | 0.00 | 0.00 | 55 | 1001.6 |
| 20260505013457 | 73 | 114 | 0.0 | 0.0 | 0.00 | 0.00 | 0.00 | 55 | 1001.4 |
| 20260505012954 | 73 | 114 | 0.0 | 0.0 | 0.00 | 0.00 | 0.00 | 55 | 1001.4 |
| 20260505012452 | 73 | 114 | 0.0 | 0.0 | 0.00 | 0.00 | 0.00 | 55 | 1001.4 |
| 20260505011949 | 74 | 114 | 0.0 | 0.0 | 0.00 | 0.00 | 0.00 | 55 | 1001.4 |
| 20260505011444 | 74 | 114 | 0.0 | 0.0 | 0.00 | 0.00 | 0.00 | 54 | 1001.3 |
| 20260505010942 | 75 | 114 | 0.0 | 0.0 | 0.00 | 0.00 | 0.00 | 54 | 1001.3 |
| 20260505010437 | 75 | 114 | 0.0 | 0.0 | 0.00 | 0.00 | 0.00 | 53 | 1001.0 |
| 20260505005933 | 75 | 114 | 0.0 | 0.0 | 0.00 | 0.00 | 0.00 | 52 | 1001.1 |
| 20260505005430 | 75 | 114 | 0.0 | 0.0 | 0.00 | 0.00 | 0.00 | 52 | 1001.1 |
| 20260505004928 | 76 | 114 | 0.0 | 0.0 | 0.00 | 0.00 | 0.00 | 52 | 1001.1 |
| 20260505004424 | 76 | 114 | 0.0 | 0.0 | 0.00 | 0.00 | 0.00 | 51 | 1001.0 |
| 20260505003922 | 77 | 114 | 0.0 | 0.0 | 0.00 | 0.00 | 0.00 | 51 | 1000.9 |
| 20260505003419 | 77 | 114 | 0.0 | 0.0 | 0.00 | 0.00 | 0.00 | 50 | 1000.8 |
| 20260505002915 | 78 | 114 | 0.0 | 0.0 | 0.00 | 0.00 | 0.00 | 48 | 1000.8 |
| 20260505002411 | 78 | 114 | 0.0 | 0.0 | 0.00 | 0.00 | 0.00 | 48 | 1000.7 |
| 20260505001910 | 78 | 115 | 0.0 | 0.0 | 0.00 | 0.00 | 0.00 | 47 | 1001.0 |
| 20260505001407 | 78 | 115 | 0.0 | 0.0 | 0.00 | 0.00 | 0.00 | 47 | 1000.8 |
| 20260505000904 | 79 | 112 | 0.0 | 0.0 | 0.00 | 0.00 | 0.00 | 46 | 1000.8 |
| 20260505000402 | 79 | 111 | 0.0 | 0.0 | 0.00 | 0.00 | 0.00 | 45 | 1000.9 |
| 20260504235858 | 79 | 115 | 0.0 | 0.0 | 0.00 | 0.00 | 0.00 | 46 | 1000.8 |
| 20260504235355 | 79 | 124 | 0.0 | 0.0 | 0.00 | 0.00 | 0.00 | 46 | 1001.0 |